COSMOS 1275 DEB, 13018

Orbit data source: Space-Track

COSMOS 1275 DEB, 13018 is space debris in LEO originally from a launch on Thu, 04 Jun 1981 UTC launched from the Plesetsk Missile And Space Complex (PKMTR). Debris objects in space refer to the collection of defunct objects orbiting the Earth. Examples of debris include non-operational satellites, rocket bodies, and fragments generated from explosions, collisions, or faulty payload assembly.

Loading next visibility...
Identifier
13018, 1981-053EQ
Orbit
LEO
Country
Flag of CISCIS
Related business
Manufacturer
Unknown
Mission
Spacecraft
Bus & Motor
Unknown
Mass
Unknown
Launch date (UTC)
1981-06-04 (45 years ago)
Launch vehicle
Unknown
Launch site
Plesetsk Missile And Space Complex (PKMTR)
Object type
Payload
Rocket body
Debris
Shape & HBR
Unknown shape, 0.1 m
Radar Cross Section
Medium (>0.1 m² and <1 m²)

Expand to show TLE details & history
Last TLE update: 2 days ago

TLE from 2 days ago
0 COSMOS 1275 DEB
1 13018U 81053EQ  26170.99345424  .00000916  00000-0  64686-3 0  9995
2 13018  82.6734   0.6543 0047480 278.0057 234.3779 13.96429984245624
Epoch: 2026-06-19T23:50Z
TLE epoch observation values (Epoch: 2026-06-19T23:50:34.446Z)
Latitude
27.8492°
Longitude
-89.07846°
Altitude
929.87 km
Speed
7.379 km/s
True Right ascension
11h 47m 07s
True Declination
27° 42' 39"
Sunlit
Object was in daylight at epoch
Visualization orbit readout
Latitude
Unknown
Longitude
Unknown
Altitude
Unknown
Speed
Unknown
Apparent Right ascension
Unknown
Apparent Declination
Unknown
Sunlit
N/A
Visualization observer readout
Local Sidereal Time
22:47:08
Azimuth
Unknown
Elevation
Unknown
Doppler factor
Unknown
Orbital elements
Apogee altitude
937.886 km
Perigee altitude
868.741 km
Semi-major axis
7,281.45 km
Eccentricity
0.00475
Inclination
82.6734°
RAAN
0.6543°
Arg. of periapsis
278.0057°
True anomaly
233.93716°
Mean anomaly
234.3779°
Eccentric anomaly
234.15738°
Mean motion
3.49314 °/min
Orbital period
103.06 mins
BSTAR
0.00064686
Loading maneuver chart data...
Computing Atmospheric mass density...

Documentation

Showing up to 5 results
|